Location: Ar Ranvel
(48.3000°N, 4.8833°W)
Time: 22:30:45
(UTC+00:00)

Meteor 2-10 Rocket - Pass Details

Date: 30 October 2021
Orbit: 733 x 885 km, 81.2° (Epoch: 30 November)

Event Time Altitude Azimuth Distance (km) Brightness Sun altitude
Rises 03:37:52 0° 359° (N) 3,189 6.9 -34.1°
Reaches altitude 10° 03:40:51 10° 16° (NNE) 2,252 6.3 -33.7°
Maximum altitude 03:44:29 20° 63° (ENE) 1,679 5.9 -33.1°
Drops below altitude 10° 03:48:05 10° 109° (ESE) 2,240 6.5 -32.5°
Sets 03:51:02 0° 127° (SE) 3,167 7.2 -32.1°
